TimeEST,TemperatureF,Dew PointF,Humidity,Sea Level PressureIn,VisibilityMPH,Wind Direction,Wind SpeedMPH,Gust SpeedMPH,PrecipitationIn,Events,Conditions,WindDirDegrees,DateUTC
12:52 AM,37.9,27.0,65,29.98,10.0,WNW,5.8,-,N/A,,Clear,290,2012-11-08 05:52:00
1:52 AM,37.0,26.1,65,29.99,10.0,West,8.1,-,N/A,,Clear,270,2012-11-08 06:52:00
2:52 AM,35.1,26.1,70,30.00,10.0,West,8.1,-,N/A,,Clear,270,2012-11-08 07:52:00
3:52 AM,35.1,28.0,76,30.01,10.0,West,8.1,-,N/A,,Clear,260,2012-11-08 08:52:00
4:52 AM,33.1,26.1,75,30.04,10.0,West,6.9,-,N/A,,Clear,260,2012-11-08 09:52:00
5:52 AM,33.1,26.1,75,30.07,10.0,West,8.1,-,N/A,,Clear,260,2012-11-08 10:52:00
6:52 AM,32.0,25.0,75,30.09,10.0,West,9.2,-,N/A,,Clear,270,2012-11-08 11:52:00
7:52 AM,34.0,25.0,70,30.12,10.0,West,9.2,-,N/A,,Clear,270,2012-11-08 12:52:00
8:52 AM,37.0,25.0,62,30.14,10.0,West,12.7,-,N/A,,Clear,280,2012-11-08 13:52:00
9:52 AM,39.0,25.0,57,30.15,10.0,WNW,15.0,25.3,N/A,,Clear,300,2012-11-08 14:52:00
10:52 AM,42.1,25.0,51,30.16,10.0,WNW,10.4,19.6,N/A,,Clear,290,2012-11-08 15:52:00
11:52 AM,44.1,23.0,43,30.14,10.0,NW,10.4,19.6,N/A,,Clear,310,2012-11-08 16:52:00
12:52 PM,46.9,24.1,41,30.11,10.0,Variable,6.9,17.3,N/A,,Clear,0,2012-11-08 17:52:00
1:52 PM,48.0,21.0,34,30.10,10.0,NW,9.2,-,N/A,,Clear,310,2012-11-08 18:52:00
2:52 PM,48.9,19.0,31,30.10,10.0,WNW,10.4,-,N/A,,Clear,290,2012-11-08 19:52:00
3:52 PM,48.0,16.0,28,30.11,10.0,NW,15.0,-,N/A,,Clear,310,2012-11-08 20:52:00
4:52 PM,46.9,15.1,28,30.12,10.0,NW,6.9,-,N/A,,Clear,310,2012-11-08 21:52:00
5:52 PM,44.1,19.9,38,30.14,10.0,WNW,5.8,-,N/A,,Clear,300,2012-11-08 22:52:00
6:52 PM,42.1,21.0,43,30.17,10.0,West,5.8,-,N/A,,Clear,280,2012-11-08 23:52:00
7:52 PM,39.9,23.0,51,30.17,10.0,WNW,8.1,-,N/A,,Clear,290,2012-11-09 00:52:00
8:52 PM,39.9,23.0,51,30.17,10.0,WNW,5.8,-,N/A,,Clear,290,2012-11-09 01:52:00
9:52 PM,37.9,23.0,55,30.18,10.0,West,4.6,-,N/A,,Clear,270,2012-11-09 02:52:00
10:52 PM,36.0,23.0,59,30.17,10.0,West,3.5,-,N/A,,Clear,260,2012-11-09 03:52:00
11:52 PM,34.0,21.9,61,30.18,10.0,WSW,5.8,-,N/A,,Clear,250,2012-11-09 04:52:00